TimeEST,TemperatureF,Dew PointF,Humidity,Sea Level PressureIn,VisibilityMPH,Wind Direction,Wind SpeedMPH,Gust SpeedMPH,PrecipitationIn,Events,Conditions,WindDirDegrees,DateUTC
12:15 AM,46.4,44.6,93,30.07,10.0,Calm,Calm,-,N/A,,Clear,0,2012-12-20 05:15:00
12:35 AM,44.6,44.6,100,30.06,10.0,East,4.6,-,N/A,,Clear,80,2012-12-20 05:35:00
12:55 AM,44.6,42.8,93,30.05,10.0,Calm,Calm,-,N/A,,Clear,0,2012-12-20 05:55:00
1:15 AM,44.6,44.6,100,30.05,10.0,Calm,Calm,-,N/A,,Clear,0,2012-12-20 06:15:00
1:35 AM,44.6,44.6,100,30.06,10.0,Calm,Calm,-,N/A,,Clear,0,2012-12-20 06:35:00
1:55 AM,44.6,44.6,100,30.06,10.0,Calm,Calm,-,N/A,,Clear,0,2012-12-20 06:55:00
2:15 AM,46.4,44.6,93,30.05,10.0,Calm,Calm,-,N/A,,Clear,0,2012-12-20 07:15:00
2:35 AM,44.6,42.8,93,30.04,10.0,Calm,Calm,-,N/A,,Clear,0,2012-12-20 07:35:00
2:55 AM,44.6,42.8,93,30.03,7.0,East,4.6,-,N/A,,Clear,80,2012-12-20 07:55:00
3:15 AM,44.6,44.6,100,30.03,7.0,ENE,3.5,-,N/A,,Clear,70,2012-12-20 08:15:00
3:35 AM,44.6,44.6,100,30.02,7.0,East,4.6,-,N/A,,Clear,90,2012-12-20 08:35:00
3:55 AM,44.6,44.6,100,30.03,10.0,Calm,Calm,-,N/A,,Clear,0,2012-12-20 08:55:00
4:15 AM,44.6,44.6,100,30.02,7.0,SE,3.5,-,N/A,,Clear,130,2012-12-20 09:15:00
4:35 AM,44.6,44.6,100,30.03,10.0,Calm,Calm,-,N/A,,Clear,0,2012-12-20 09:35:00
4:55 AM,46.4,44.6,93,30.04,10.0,Calm,Calm,-,N/A,,Scattered Clouds,0,2012-12-20 09:55:00
5:15 AM,46.4,46.4,100,30.01,10.0,East,3.5,-,N/A,,Scattered Clouds,80,2012-12-20 10:15:00
5:35 AM,46.4,44.6,93,30.01,10.0,ENE,4.6,-,N/A,,Clear,70,2012-12-20 10:35:00
5:55 AM,46.4,44.6,93,30.00,10.0,ESE,3.5,-,N/A,,Clear,110,2012-12-20 10:55:00
6:15 AM,46.4,44.6,93,29.99,10.0,Calm,Calm,-,N/A,,Clear,0,2012-12-20 11:15:00
6:55 AM,51.8,50.0,94,29.97,10.0,SSE,5.8,-,N/A,,Clear,150,2012-12-20 11:55:00
7:15 AM,51.8,48.2,88,29.98,10.0,SSW,3.5,-,N/A,,Clear,200,2012-12-20 12:15:00
7:35 AM,51.8,50.0,94,29.99,10.0,West,3.5,-,N/A,,Clear,270,2012-12-20 12:35:00
7:55 AM,51.8,50.0,94,29.99,10.0,Calm,Calm,-,N/A,,Clear,0,2012-12-20 12:55:00
8:15 AM,51.8,50.0,94,29.99,10.0,South,4.6,-,N/A,,Clear,190,2012-12-20 13:15:00
8:35 AM,53.6,51.8,94,29.98,10.0,South,5.8,-,N/A,,Clear,180,2012-12-20 13:35:00
8:55 AM,57.2,53.6,88,29.97,10.0,SSE,10.4,-,N/A,,Clear,160,2012-12-20 13:55:00
9:15 AM,59.0,55.4,88,29.96,10.0,SSE,9.2,18.4,N/A,,Clear,160,2012-12-20 14:15:00
9:35 AM,62.6,57.2,82,29.97,10.0,South,8.1,-,N/A,,Clear,180,2012-12-20 14:35:00
9:55 AM,62.6,57.2,82,29.98,10.0,SSW,8.1,-,N/A,,Clear,200,2012-12-20 14:55:00
10:15 AM,64.4,59.0,83,29.98,10.0,South,10.4,16.1,N/A,,Scattered Clouds,190,2012-12-20 15:15:00
10:35 AM,68.0,60.8,78,29.95,10.0,South,12.7,18.4,N/A,,Scattered Clouds,170,2012-12-20 15:35:00
10:55 AM,69.8,60.8,73,29.93,10.0,SSE,16.1,23.0,N/A,,Clear,160,2012-12-20 15:55:00
11:15 AM,71.6,62.6,73,29.93,10.0,South,12.7,21.9,N/A,,Scattered Clouds,180,2012-12-20 16:15:00
11:35 AM,71.6,62.6,73,29.92,10.0,South,15.0,21.9,N/A,,Scattered Clouds,180,2012-12-20 16:35:00
12:15 PM,71.6,64.4,78,29.87,10.0,South,17.3,28.8,N/A,,Scattered Clouds,190,2012-12-20 17:15:00
12:55 PM,77.0,68.0,74,29.83,10.0,South,17.3,25.3,N/A,,Scattered Clouds,190,2012-12-20 17:55:00
1:15 PM,77.0,68.0,74,29.82,10.0,South,15.0,26.5,N/A,,Mostly Cloudy,190,2012-12-20 18:15:00
1:35 PM,73.4,66.2,78,29.80,10.0,South,17.3,27.6,N/A,,Mostly Cloudy,180,2012-12-20 18:35:00
1:55 PM,73.4,66.2,78,29.78,10.0,South,19.6,27.6,N/A,,Mostly Cloudy,180,2012-12-20 18:55:00
2:15 PM,71.6,68.0,88,29.79,7.0,South,17.3,26.5,N/A,Rain,Rain,180,2012-12-20 19:15:00
2:35 PM,71.6,69.8,94,29.79,4.0,South,12.7,18.4,N/A,Rain,Heavy Rain,190,2012-12-20 19:35:00
2:55 PM,71.6,69.8,94,29.77,3.0,South,8.1,-,N/A,Rain,Heavy Rain,180,2012-12-20 19:55:00
3:15 PM,71.6,69.8,94,29.77,5.0,SSW,19.6,31.1,N/A,Rain,Rain,210,2012-12-20 20:15:00
3:35 PM,71.6,68.0,88,29.80,5.0,SW,23.0,32.2,N/A,Rain,Rain,230,2012-12-20 20:35:00
4:15 PM,71.6,69.8,94,29.78,7.0,SW,15.0,21.9,N/A,Rain,Light Rain,220,2012-12-20 21:15:00
4:35 PM,69.8,68.0,94,29.79,10.0,SW,16.1,20.7,N/A,Rain,Light Rain,220,2012-12-20 21:35:00
4:55 PM,69.8,68.0,94,29.79,10.0,SW,11.5,-,N/A,Rain,Light Rain,220,2012-12-20 21:55:00
5:15 PM,64.4,60.8,88,29.81,10.0,West,9.2,19.6,N/A,Rain,Light Rain,270,2012-12-20 22:15:00
5:35 PM,64.4,60.8,88,29.82,10.0,WSW,6.9,-,N/A,,Mostly Cloudy,250,2012-12-20 22:35:00
5:55 PM,62.6,59.0,88,29.84,10.0,West,8.1,-,N/A,,Overcast,260,2012-12-20 22:55:00
6:15 PM,62.6,57.2,82,29.85,10.0,West,11.5,16.1,N/A,,Overcast,280,2012-12-20 23:15:00
6:35 PM,62.6,55.4,77,29.86,10.0,West,13.8,-,N/A,,Mostly Cloudy,280,2012-12-20 23:35:00
6:55 PM,60.8,55.4,82,29.88,10.0,West,12.7,-,N/A,,Scattered Clouds,270,2012-12-20 23:55:00
7:15 PM,59.0,53.6,82,29.89,10.0,West,10.4,-,N/A,,Clear,270,2012-12-21 00:15:00
7:35 PM,59.0,53.6,82,29.90,10.0,West,9.2,-,N/A,,Clear,270,2012-12-21 00:35:00
7:55 PM,59.0,51.8,77,29.92,10.0,West,9.2,-,N/A,,Clear,270,2012-12-21 00:55:00
8:15 PM,57.2,50.0,77,29.93,10.0,West,10.4,-,N/A,,Clear,280,2012-12-21 01:15:00
8:35 PM,57.2,51.8,82,29.95,10.0,WNW,9.2,-,N/A,,Clear,290,2012-12-21 01:35:00
8:55 PM,57.2,46.4,67,29.96,10.0,NW,19.6,24.2,N/A,,Clear,310,2012-12-21 01:55:00
9:15 PM,53.6,37.4,54,29.98,10.0,NW,23.0,29.9,N/A,,Clear,310,2012-12-21 02:15:00
9:55 PM,51.8,37.4,58,30.02,10.0,WNW,17.3,24.2,N/A,,Clear,300,2012-12-21 02:55:00
10:15 PM,51.8,35.6,54,30.03,10.0,WNW,19.6,25.3,N/A,,Clear,300,2012-12-21 03:15:00
10:35 PM,51.8,35.6,54,30.04,10.0,WNW,15.0,-,N/A,,Clear,300,2012-12-21 03:35:00
10:55 PM,50.0,37.4,62,30.05,10.0,WNW,17.3,25.3,N/A,,Clear,300,2012-12-21 03:55:00
11:15 PM,50.0,35.6,58,30.06,10.0,WNW,15.0,25.3,N/A,,Clear,300,2012-12-21 04:15:00